Погода в Ашхабаде

Погода в Ашхабаде : погода сейчас, прогноз погоды и архив. Всё, что Вы хотите узнать о погоде в Ашхабаде!

Поиск расширенной информации на нашем сайте:

Другие новости

Новости СМИ2

Главная страница сайта

Новости сайта

03.07.2017

Напоминаем, что на нашем специализированном сайте Метеоцентр.Азия вы можете получить высокодетализированные автоматические прогнозы погоды по пунктам России, СНГ и мира в авиационном формате (включающие направление и скорость ветра, видимость, явления погоды, количество и форму облачности, нижнюю и верхнюю границу облачности).


Погода в Ашхабаде - сегодня

Время (UTC), дата Ветер
(°,м/с) 
Видим.   Явления Облачность Т
(°С)
Тd
(°С)
f(%) Тe
(°С)
Pmin
(гПа)
dP
(гПа)
Po
(мм)
O2
(г/м3)
Тmin Tmax R s Состояние
почвы
18 21.09.17 260 (З) 10 км    ясно 
+24.2 +2.3 24 +24  1013.1  0.4  742  274    +33       
21 21.09.17 230 (ЮЗ) 10 км    ясно 
+22.4 +0.9 24 +22  1013  -0.2             
00 22.09.17 240 (ЮЗ) 10 км    ясно 
+18.4 +2.5 35 +19  1012.9  -0.4  741  279           
03 22.09.17 210 (ЮЗ) 10 км    ясно 
+19 +0.9 30 +21  1013.2  0.4  751  283           
06 22.09.17 310 (СЗ) 10 км    ясно 
+27.4 +3.8 22 +27  1013.4  0.7  742  271  +17.9         
09 22.09.17 320 (СЗ) 10 км    ясно 
+30.2 +0.9 15 +30  1011.9  -1.2  741  269           
12 22.09.17 300 (СЗ) 10 км    ясно 
+31.3 +0.6 14 +31  1011.3  -0.5  741  268           
15 22.09.17 250 (З) 10 км    ясно 
+26.6 +3.2 22 +27  1011.6  741  272    +31.5       
18 22.09.17 210 (ЮЗ) 10 км    ясно 
+22 +0.9 25 +22  1012.8  0.7  741  276    +31.5       
21 22.09.17 220 (ЮЗ) 10 км    ясно 
+19.4 +1.7 31 +20  1013.2  0.2  742  279           
00 23.09.17 220 (ЮЗ) 10 км    ясно 
+18 +0.9 32 +19  1013.4  0.1  742  280           
03 23.09.17 190 (Ю) 10 км    ясно 
+18.2 +2.3 35 +19  1014.1  0.7  742  280           
06 23.09.17 320 (СЗ) 10 км    ясно 
+28.8 +3 19 +29  1014.1  0.9  743  270  +16.7         
09 23.09.17 310 (СЗ) 10 км    ясно 
+31.8 +1.5 14 +32      751  271           
12 23.09.17 300 (СЗ) 10 км    ясно 
+32.2 +1.5 14 +32  1013.8  -0.2  743  267           
15 23.09.17 260 (З) 10 км    ясно 
+28 +1.3 18 +28  1014.6  0.5  743  271    +33.2       
18 23.09.17 210 (ЮЗ) 10 км    ясно 
+23.4 +1.5 24 +23  1015.6  0.6  744  276    +33.2       
21 23.09.17 240 (ЮЗ) 10 км    ясно 
+20.6 +1.7 28 +21  1015.1  -0.7  743  278           
00 24.09.17 250 (З) 10 км    ясно 
+18 +1.3 33 +19  1015  -0.3  743  281           
03 24.09.17 270 (З) 10 км    ясно 
+18.6 +1.3 31 +20  1016.4  1.4  744  280           
06 24.09.17 010 (С) 10 км    ясно 
+30.2 +2.5 17 +30  1015.9  0.4  744  270  +17.3         
09 24.09.17 330 (СЗ) 10 км    ясно 
+32.6 +1 13 +33  1015.7  744  268           
12 24.09.17 020 (С) 10 км    4/3 1500 м средняя 
[Sc|Ac trans]
+33.4 -2.5 10 +33  1015.2  -0.5  744  267           
15 24.09.17 220 (ЮЗ) 10 км    3/0 средняя 
[Ac trans]
+28.3 +3.8 21 +28  1015.8  0.2  744  271    +34       
18 24.09.17 230 (ЮЗ) 10 км    ясно 
+23 +4.3 30 +23  1016.4  0.2  744  276    +34       
Время (UTC), дата Ветер
(°,м/с) 
Видим.   Явления Облачность Т
(°С)
Тd
(°С)
f(%) Тe
(°С)
Pmin
(гПа)
dP
(гПа)
Po
(мм)
O2
(г/м3)
Тmin Tmax R s Состояние
почвы

Для получения пояснительной информации подведите курсор к названию столбца.

ПОГОДА в Ашхабаде - архив

Всё, что Вы хотите узнать о погоде в Ашхабаде - удобно и подробно!

Выберите нужную дату (начиная с 1 января 2015* года) и нажмите кнопку "Найти".
Будут отображены архивные сводки погоды по пункту Ашхабад, начиная с указанной даты.


Отображать данные в формате CSV (для использования в таблицах Excel)


Внимание! Наш архив погоды предназначен исключительно для личного некоммерческого использования в познавательных целях. Если Вам необходимы официальные справки о состоянии погоды (для производственных, юридических, коммерческих и т.п. целей), обращайтесь в органы Росгидромета.

*Примечание: данная дата относится к архиву по метеостанциям СССР (Россия, СНГ, Балтия).
Архив по метеостанциям Зарубежной Европы и Азии (кроме Китая) хранится 10 дней, по другим регионам земного шара (Китай, Африка, Америка, Австралия, Океания) - 1 день.

Ашхабад - район местоположения метеостанции


Название, широта, долгота, высота метеостанции:
Ашхабад (город) 38°ш. 58.3°д. 208 м над ур. моря [Туркменистан]

Дополнительная информация

В oтличие oт бoльшинства пoгoдных сайтoв мы публикуем пoдрoбную метеoинфoрмацию в детальнoм прoфессиoнальнoм фoрмате.

Характеристики температуры и влажнoсти вoздуха измеряются на высoте 2 м в тени вдали oт зданий и деревьев.
Скoрoсть ветра измеряется на высoте 10 м (на урoвне рoста челoвека скoрoсть ветра ниже в 1.5-2 раза). Если метеoстанция нахoдится в гoрoде или в лесу, тo скoрoсть ветра занижена на 2-4 м/с пo сравнению с oткрытым местoм. Скoрoсть ветра над акватoриями крупных рек и oзёр, а также на вершинах хoлмoв на 2-5 м/с выше, чем в oбычных услoвиях.
Атмoсфернoе давление в разных тoчках местнoсти мoжет значительнo oтличаться oт давления на метеoстанции, в зависимoсти oт услoвий рельефа (при пoдъёме на 10 м давление пoнижается примернo на 1 мм рт.ст.).